Wind_Speed
27 26 25 25 26 26 26 26 26 25 26 26 25 25 25 26 26 26 26 27 28 29 30 31 32 33 34 36 37 38 40 41 43 44 46 47 48 50 51 53 54 55 56 57
29 28 27 28 28 28 28 28 27 27 28 27 27 27 26 27 27 27 28 28 29 29 30 32 33 33 35 36 38 39 40 42 43 45 46 47 48 49 50 51 53 55 57 58
31 30 30 30 29 29 29 29 29 29 29 30 29 28 27 27 28 29 29 30 30 31 32 33 34 35 36 38 39 40 41 43 44 45 46 47 49 50 51 52 54 55 57 58
34 33 33 32 31 31 31 31 31 31 31 31 31 31 28 28 29 30 30 31 32 33 33 34 35 37 38 39 40 41 43 44 45 46 48 49 50 51 53 54 54 55 56 56
36 35 35 35 33 33 33 33 33 33 33 34 33 34 31 29 30 30 31 32 33 34 35 35 37 38 39 40 42 43 45 46 47 48 50 51 52 53 54 55 55 55 55 55
38 38 37 37 36 36 36 36 36 36 36 36 35 36 35 32 32 32 33 34 35 35 36 37 38 39 40 42 43 45 46 47 49 50 51 53 54 55 56 55 55 54 54 54
40 39 39 38 38 37 37 37 37 38 38 38 37 37 37 35 34 34 35 35 36 36 37 38 39 40 41 43 45 46 47 49 50 51 52 54 55 56 56 56 54 53 53 53
41 40 40 39 39 38 37 37 38 39 40 40 39 39 38 38 37 36 37 37 37 37 38 39 40 41 43 44 46 47 48 50 51 52 53 55 56 56 54 53 52 51 51 52
40 41 41 40 39 39 39 39 39 40 42 42 41 41 39 39 39 38 38 38 39 39 40 41 42 43 44 45 47 48 49 51 52 53 54 55 55 53 52 51 51 50 50 50
40 41 40 40 40 40 39 39 39 39 42 43 43 41 40 40 40 40 40 40 40 41 42 43 44 44 45 46 47 49 50 51 52 53 54 54 53 52 51 51 51 50 50 48
41 42 42 41 40 39 40 40 41 42 43 44 44 42 41 41 41 41 41 41 42 43 44 44 45 45 46 47 48 49 50 51 52 53 53 53 52 51 50 50 50 49 49 48
41 43 43 42 42 42 42 41 41 42 42 44 45 43 41 42 42 42 42 43 43 44 44 45 45 46 47 48 49 50 51 51 52 53 52 51 50 49 49 49 50 50 49 49
41 42 42 43 43 43 43 42 42 43 44 44 44 43 42 42 41 42 43 43 44 44 44 45 45 46 47 48 49 50 50 51 51 52 51 49 49 48 49 49 49 49 48 47
42 42 42 42 42 42 42 42 43 43 44 45 43 42 41 42 42 42 43 44 43 44 44 45 45 46 47 48 49 49 50 51 51 50 49 48 48 48 48 49 48 47 47 47
42 42 42 42 42 42 43 42 43 44 44 45 43 42 40 41 42 42 43 44 43 44 44 45 45 46 47 48 49 50 50 50 50 49 48 48 48 49 48 48 47 47 46 46
43 43 42 42 42 43 44 43 43 43 43 44 43 41 39 41 42 42 43 44 44 44 45 46 46 46 47 48 49 49 49 49 49 48 48 47 48 49 48 47 47 47 45 45
43 43 43 43 42 43 44 41 41 42 42 42 42 41 40 41 41 42 43 43 44 44 45 46 46 47 47 48 48 49 49 49 49 48 47 47 48 48 47 45 45 45 44 43
43 44 44 44 44 45 41 39 40 41 41 41 41 41 42 42 42 43 43 43 44 45 45 46 46 46 47 48 48 48 48 48 48 47 47 46 47 46 44 43 42 42 41 40
40 41 42 43 44 44 41 40 40 41 41 40 41 41 42 43 44 44 44 44 44 45 45 46 46 47 48 48 48 47 47 47 47 47 46 45 45 44 42 41 40 39 38 38
38 39 40 40 41 41 39 40 41 43 42 40 40 40 40 41 42 41 42 43 44 44 45 45 46 47 48 48 47 47 46 46 45 44 44 44 42 41 40 38 37 35 34 34
36 37 38 39 39 39 36 38 40 42 42 41 41 41 41 41 42 42 42 43 44 45 45 46 46 47 47 47 47 46 45 44 43 42 41 40 39 38 37 36 34 33 32 31
36 37 38 38 39 37 36 37 39 41 42 42 41 41 41 41 42 42 43 43 43 44 44 44 45 46 46 46 45 45 44 43 41 39 38 37 37 36 35 34 32 31 30 28
35 36 36 37 36 35 36 37 38 39 40 40 40 40 41 41 42 43 43 43 43 43 43 43 43 44 44 44 44 43 42 41 39 38 36 35 34 34 33 31 30 29 26 24
33 34 36 36 36 36 36 36 37 38 39 40 40 40 40 40 40 40 40 40 41 42 42 42 42 43 43 42 42 41 39 37 36 35 34 33 32 30 30 28 27 26 24 21
30 32 34 35 34 35 35 36 37 38 38 38 38 38 39 39 39 39 39 39 40 40 41 41 42 41 41 40 39 37 35 34 33 32 30 30 28 26 25 24 23 22 19 18
30 32 33 33 33 35 35 35 35 37 37 37 38 38 38 39 39 39 39 39 39 40 40 41 41 39 39 38 36 34 32 31 30 29 28 26 25 23 21 20 20 20 18 17
Wind_Direction
247 247 247 247 248 249 249 250 251 253 254 253 253 253 256 259 261 263 265 268 271 273 275 277 278 279 281 282 282 282 283 284 284 284 284 283 283 283 282 281 279 277 276 273
246 247 248 248 248 250 251 253 254 255 256 255 254 255 257 260 263 265 267 270 272 275 277 278 280 281 282 283 284 284 285 286 287 286 286 286 286 285 284 283 282 280 278 277
247 247 248 249 250 251 253 254 256 258 259 259 259 257 258 261 264 266 269 272 274 276 278 279 281 283 284 285 286 287 287 288 289 288 288 289 289 288 287 286 284 282 280 279
247 247 249 250 251 252 254 255 257 259 261 261 261 261 259 262 264 267 270 272 274 276 279 281 283 284 285 286 287 288 290 290 290 290 289 289 290 290 290 289 286 284 281 280
248 249 249 250 251 253 254 256 258 260 262 262 263 265 263 264 266 269 271 273 275 277 279 281 283 285 287 288 289 290 292 292 292 291 291 291 292 292 291 290 287 285 282 280
248 249 249 250 251 252 255 257 259 260 262 263 263 266 267 267 269 270 272 274 276 278 280 282 284 286 288 289 291 292 293 293 294 294 293 293 294 293 292 291 288 285 283 281
248 249 250 250 251 253 255 258 260 261 261 263 265 266 269 270 271 272 274 275 277 279 281 283 286 288 289 291 292 293 293 294 295 296 296 295 295 295 294 291 289 286 283 281
248 248 249 250 251 254 255 257 260 263 265 265 266 267 270 271 273 274 275 277 279 281 283 285 287 288 289 291 292 293 294 296 296 297 297 297 296 296 295 292 290 288 286 282
248 249 249 250 251 253 254 256 258 262 264 265 266 268 270 272 274 275 277 279 280 282 283 285 287 288 290 292 293 294 295 296 297 297 297 298 298 297 295 293 290 289 287 283
248 249 249 249 250 251 253 255 257 260 264 266 267 269 272 273 274 276 278 280 281 282 284 286 288 290 291 292 293 294 296 296 297 298 298 299 298 297 296 294 292 291 288 284
249 250 250 250 250 252 253 255 258 261 263 267 269 271 272 275 277 278 280 281 282 283 285 287 289 291 292 293 294 295 296 296 297 298 298 298 297 297 296 295 294 293 289 286
249 250 251 251 251 252 254 256 259 261 263 266 268 271 273 275 278 279 280 281 282 284 286 288 290 291 292 293 294 296 297 297 297 298 298 298 297 297 296 296 296 293 290 287
248 249 251 252 252 254 255 257 259 261 263 265 267 270 272 275 277 279 280 281 282 284 286 288 290 291 293 294 295 296 297 298 298 299 299 298 298 298 297 298 298 295 292 289
247 248 250 253 256 256 256 257 259 261 264 266 267 269 270 273 275 276 278 279 282 284 286 288 290 292 293 295 296 297 297 298 298 299 298 298 298 299 298 299 298 296 293 290
247 249 250 252 254 256 257 257 259 262 264 267 268 269 270 272 273 274 276 278 281 283 286 288 290 292 294 296 296 297 297 297 298 299 299 299 299 300 300 299 298 297 294 292
247 250 251 253 254 256 257 258 261 262 263 266 267 268 269 270 272 273 275 278 281 284 286 288 290 292 293 295 296 296 296 297 298 300 300 299 299 300 300 299 298 297 295 294
246 249 250 252 254 256 257 259 261 261 262 264 266 267 268 269 271 272 275 278 281 284 286 288 290 291 292 294 296 296 296 297 298 299 299 299 300 301 301 299 299 297 296 294
247 249 252 254 254 255 260 259 259 260 262 264 266 267 268 269 270 272 275 278 281 283 285 287 289 290 292 294 295 296 296 297 297 298 299 299 300 300 300 299 299 298 297 295
246 249 253 255 257 259 259 260 260 262 262 264 266 267 268 269 270 273 276 278 281 283 285 287 289 290 292 294 295 296 297 297 297 298 298 299 300 299 300 299 298 298 297 296
247 249 251 254 257 259 260 260 261 262 263 263 265 266 267 269 271 273 275 278 280 283 285 288 290 291 293 295 295 296 297 297 297 297 298 299 299 298 299 299 299 298 298 297
248 250 251 254 258 259 261 261 262 263 264 263 265 267 268 270 272 274 277 279 281 283 286 288 289 291 293 294 295 295 297 297 296 297 299 299 298 297 298 298 299 299 299 298
249 251 252 255 258 261 261 262 263 264 264 266 268 269 271 272 274 276 278 280 282 284 286 288 290 292 293 293 294 294 296 297 296 297 298 298 297 297 298 298 300 300 299 297
251 252 253 254 257 260 260 262 263 265 266 268 269 271 273 274 276 277 279 281 282 284 287 289 291 292 293 293 294 294 294 295 295 295 296 296 297 296 296 297 299 300 300 296
251 252 253 255 257 259 259 261 263 264 267 269 271 272 274 275 276 278 279 281 283 285 287 289 291 292 292 293 294 294 294 293 294 295 296 296 297 296 295 295 297 300 299 295
250 251 253 255 257 258 259 262 264 266 268 271 273 275 276 276 277 278 279 281 283 285 287 290 292 293 294 294 293 293 292 292 293 295 296 296 297 297 296 294 295 296 296 294
251 253 253 254 255 258 260 263 266 268 270 271 273 274 275 276 277 278 279 281 283 285 288 290 291 292 293 294 293 292 292 291 292 294 294 293 293 293 295 295 294 294 292 291
Height
5719 5722 5723 5724 5725 5725 5726 5727 5728 5730 5730 5731 5732 5733 5734 5734 5735 5735 5736 5736 5736 5736 5735 5734 5733 5732 5730 5728 5726 5724 5722 5719 5716 5713 5710 5707 5704 5701 5698 5695 5692 5689 5687 5686
5713 5714 5716 5716 5717 5718 5719 5720 5722 5723 5723 5724 5725 5727 5727 5727 5727 5728 5728 5728 5728 5727 5727 5726 5724 5723 5721 5719 5716 5714 5711 5708 5705 5701 5698 5695 5691 5688 5684 5681 5677 5674 5671 5669
5704 5707 5707 5708 5710 5711 5712 5713 5714 5715 5715 5715 5717 5719 5721 5721 5720 5720 5720 5720 5719 5719 5718 5717 5715 5713 5711 5709 5706 5703 5700 5697 5693 5690 5686 5682 5678 5675 5671 5667 5663 5658 5655 5651
5695 5698 5699 5700 5702 5703 5704 5705 5706 5706 5707 5708 5709 5710 5714 5713 5712 5712 5712 5712 5711 5710 5709 5708 5706 5704 5701 5699 5696 5693 5689 5686 5682 5678 5674 5669 5665 5661 5657 5652 5647 5643 5638 5635
5686 5689 5690 5692 5694 5694 5695 5696 5697 5698 5698 5699 5700 5700 5705 5705 5704 5704 5704 5703 5702 5701 5700 5698 5696 5694 5691 5688 5685 5681 5678 5674 5670 5665 5661 5656 5651 5647 5642 5637 5632 5627 5623 5619
5676 5678 5680 5682 5684 5685 5686 5687 5688 5688 5689 5690 5692 5692 5693 5696 5696 5695 5695 5694 5693 5692 5690 5688 5686 5683 5680 5677 5674 5670 5666 5662 5657 5652 5647 5642 5637 5632 5627 5621 5616 5611 5607 5603
5666 5668 5670 5672 5674 5676 5677 5678 5679 5678 5679 5681 5683 5682 5684 5686 5686 5685 5685 5684 5683 5682 5680 5678 5676 5673 5670 5666 5662 5658 5654 5649 5644 5639 5634 5628 5622 5616 5610 5605 5600 5595 5591 5587
5654 5658 5660 5662 5664 5666 5667 5668 5670 5669 5670 5671 5671 5672 5675 5675 5675 5675 5674 5674 5673 5671 5669 5667 5665 5662 5659 5655 5651 5646 5642 5637 5632 5626 5620 5614 5608 5601 5595 5589 5584 5579 5574 5571
5643 5646 5649 5651 5653 5655 5656 5658 5659 5659 5658 5659 5660 5663 5665 5664 5664 5664 5663 5663 5662 5660 5658 5656 5654 5651 5647 5643 5639 5634 5630 5625 5619 5613 5607 5600 5593 5587 5581 5574 5569 5564 5559 5555
5631 5634 5638 5640 5642 5644 5646 5647 5648 5648 5647 5648 5650 5652 5654 5654 5653 5653 5652 5651 5650 5648 5646 5644 5642 5639 5635 5631 5627 5622 5617 5612 5606 5600 5593 5586 5580 5573 5567 5560 5555 5549 5545 5541
5620 5623 5626 5629 5632 5634 5636 5637 5637 5637 5637 5638 5638 5644 5643 5642 5642 5641 5641 5639 5638 5636 5635 5632 5630 5626 5623 5619 5614 5610 5604 5599 5593 5586 5580 5573 5567 5561 5554 5548 5542 5536 5531 5527
5609 5611 5614 5618 5621 5622 5624 5625 5626 5627 5628 5627 5628 5634 5632 5631 5630 5629 5629 5627 5626 5624 5623 5620 5617 5614 5610 5606 5602 5597 5591 5586 5579 5573 5567 5561 5555 5549 5542 5536 5530 5524 5519 5514
5597 5600 5603 5605 5610 5611 5612 5614 5615 5615 5616 5616 5617 5624 5621 5620 5619 5618 5617 5615 5614 5612 5611 5608 5606 5602 5598 5594 5589 5584 5578 5573 5567 5560 5554 5548 5543 5536 5530 5524 5517 5512 5506 5502
5585 5588 5592 5596 5597 5599 5601 5603 5604 5604 5604 5605 5608 5611 5611 5609 5608 5606 5605 5603 5602 5601 5599 5597 5594 5590 5586 5581 5576 5571 5566 5560 5554 5548 5542 5536 5531 5525 5518 5512 5506 5500 5495 5490
5574 5577 5580 5583 5585 5587 5588 5591 5592 5592 5593 5594 5597 5598 5601 5598 5596 5595 5593 5592 5591 5590 5587 5585 5581 5578 5573 5569 5564 5559 5553 5547 5541 5536 5530 5525 5519 5513 5506 5500 5494 5489 5484 5479
5563 5566 5568 5571 5573 5574 5575 5579 5580 5581 5582 5583 5584 5587 5588 5585 5584 5583 5582 5581 5580 5578 5576 5573 5569 5565 5561 5556 5552 5546 5540 5535 5529 5524 5518 5513 5507 5501 5494 5488 5483 5477 5473 5468
5552 5554 5557 5559 5562 5561 5564 5570 5570 5570 5571 5572 5572 5576 5575 5574 5573 5572 5571 5570 5568 5566 5564 5561 5557 5553 5549 5544 5539 5534 5528 5523 5517 5512 5507 5501 5495 5489 5483 5476 5471 5466 5461 5457
5541 5543 5545 5547 5549 5550 5558 5559 5559 5559 5560 5560 5561 5562 5562 5562 5561 5560 5560 5558 5557 5555 5552 5549 5545 5542 5537 5532 5527 5522 5517 5511 5506 5501 5495 5489 5484 5478 5472 5466 5460 5455 5450 5446
5531 5533 5534 5536 5536 5539 5546 5548 5547 5547 5548 5549 5549 5550 5550 5549 5549 5549 5548 5546 5545 5543 5540 5537 5533 5529 5525 5520 5515 5510 5505 5500 5495 5489 5484 5478 5472 5467 5462 5456 5450 5445 5441 5436
5519 5522 5524 5525 5526 5529 5536 5536 5535 5535 5537 5539 5538 5538 5538 5537 5538 5539 5536 5534 5532 5530 5528 5524 5521 5517 5513 5508 5504 5499 5494 5489 5483 5478 5473 5467 5462 5457 5452 5446 5441 5436 5431 5427
5509 5511 5513 5515 5515 5519 5524 5524 5523 5525 5527 5526 5526 5526 5526 5526 5526 5526 5524 5522 5520 5518 5515 5512 5509 5506 5501 5497 5493 5488 5483 5478 5472 5468 5463 5457 5452 5447 5443 5438 5433 5428 5423 5419
5498 5501 5503 5504 5505 5511 5512 5512 5512 5512 5513 5514 5514 5515 5515 5515 5514 5513 5512 5510 5508 5506 5504 5501 5498 5494 5490 5485 5481 5477 5472 5467 5462 5457 5453 5448 5443 5439 5434 5430 5425 5421 5416 5413
5489 5492 5492 5495 5498 5499 5500 5500 5501 5501 5502 5502 5503 5503 5503 5503 5502 5501 5500 5499 5497 5494 5492 5489 5486 5483 5479 5474 5470 5466 5461 5456 5452 5448 5444 5439 5435 5431 5426 5422 5418 5414 5410 5406
5479 5480 5482 5484 5487 5488 5489 5489 5490 5490 5491 5491 5492 5492 5492 5491 5491 5490 5488 5487 5485 5483 5481 5478 5475 5472 5468 5463 5459 5455 5451 5446 5442 5438 5435 5431 5427 5423 5419 5415 5411 5408 5404 5401
5470 5471 5472 5474 5477 5477 5478 5479 5479 5480 5480 5480 5480 5480 5480 5480 5479 5478 5477 5476 5474 5472 5469 5466 5463 5460 5457 5453 5449 5445 5441 5437 5433 5430 5426 5423 5419 5416 5412 5409 5405 5402 5399 5396
5461 5462 5463 5465 5466 5467 5469 5469 5469 5469 5470 5469 5469 5469 5469 5468 5467 5467 5465 5464 5462 5461 5458 5455 5452 5449 5446 5443 5439 5435 5432 5428 5425 5422 5419 5416 5412 5410 5407 5404 5401 5397 5394 5392